| time (UTC) | temp C | wind direction | speed KPH | gust KPH | rain 1hr cm | rain 24hr cm | rain mn cm | humidity % | barometer mb |
| 20260508172052 | 17 | 229 | 9.7 | 32.2 | 0.00 | 0.00 | 0.00 | 30 | 1020.2 |
| 20260508171555 | 17 | 279 | 14.5 | 32.2 | 0.00 | 0.00 | 0.00 | 33 | 1020.1 |
| 20260508171051 | 17 | 284 | 6.4 | 24.1 | 0.00 | 0.00 | 0.00 | 30 | 1020.2 |
| 20260508170552 | 17 | 262 | 8.0 | 27.4 | 0.00 | 0.00 | 0.00 | 29 | 1020.1 |
| 20260508170058 | 17 | 261 | 4.8 | 27.4 | 0.00 | 0.00 | 0.00 | 29 | 1020.1 |
| 20260508165554 | 17 | 45 | 6.4 | 35.4 | 0.00 | 0.00 | 0.00 | 30 | 1020.0 |
| 20260508165052 | 17 | 68 | 12.9 | 35.4 | 0.00 | 0.00 | 0.00 | 29 | 1020.0 |
| 20260508164603 | 17 | 26 | 9.7 | 19.3 | 0.00 | 0.00 | 0.00 | 30 | 1019.9 |
| 20260508164054 | 17 | 315 | 6.4 | 25.7 | 0.00 | 0.00 | 0.00 | 32 | 1020.0 |
| 20260508163551 | 17 | 40 | 9.7 | 25.7 | 0.00 | 0.00 | 0.00 | 31 | 1020.0 |
| 20260508163054 | 17 | 259 | 9.7 | 24.1 | 0.00 | 0.00 | 0.00 | 30 | 1019.9 |
| 20260508162552 | 17 | 19 | 8.0 | 20.9 | 0.00 | 0.00 | 0.00 | 33 | 1020.0 |
| 20260508162054 | 16 | 59 | 6.4 | 20.9 | 0.00 | 0.00 | 0.00 | 31 | 1019.9 |
| 20260508161558 | 16 | 51 | 9.7 | 20.9 | 0.00 | 0.00 | 0.00 | 34 | 1019.8 |
| 20260508161057 | 16 | 346 | 4.8 | 22.5 | 0.00 | 0.00 | 0.00 | 35 | 1019.9 |
| 20260508160554 | 16 | 323 | 9.7 | 22.5 | 0.00 | 0.00 | 0.00 | 31 | 1019.9 |
| 20260508160057 | 16 | 33 | 8.0 | 22.5 | 0.00 | 0.00 | 0.00 | 33 | 1019.9 |
| 20260508155554 | 16 | 292 | 3.2 | 20.9 | 0.00 | 0.00 | 0.00 | 35 | 1020.0 |
| 20260508155054 | 15 | 321 | 8.0 | 20.9 | 0.00 | 0.00 | 0.00 | 36 | 1020.0 |
| 20260508154555 | 15 | 53 | 3.2 | 14.5 | 0.00 | 0.00 | 0.00 | 36 | 1020.0 |
| 20260508154052 | 14 | 48 | 6.4 | 14.5 | 0.00 | 0.00 | 0.00 | 42 | 1020.0 |
| 20260508153552 | 13 | 106 | 3.2 | 9.7 | 0.00 | 0.00 | 0.00 | 48 | 1019.9 |
| 20260508153056 | 13 | 157 | 3.2 | 8.0 | 0.00 | 0.00 | 0.00 | 57 | 1019.8 |
| 20260508152554 | 12 | 56 | 1.6 | 8.0 | 0.00 | 0.00 | 0.00 | 56 | 1019.8 |
| 20260508152051 | 12 | 129 | 1.6 | 8.0 | 0.00 | 0.00 | 0.00 | 57 | 1020.0 |
| 20260508151605 | 11 | 129 | 3.2 | 11.3 | 0.00 | 0.00 | 0.00 | 60 | 1019.9 |
| 20260508151053 | 11 | 41 | 1.6 | 11.3 | 0.00 | 0.00 | 0.00 | 61 | 1019.9 |
| 20260508150551 | 10 | 41 | 1.6 | 6.4 | 0.00 | 0.00 | 0.00 | 63 | 1019.9 |
| 20260508150057 | 10 | 0 | 1.6 | 6.4 | 0.00 | 0.00 | 0.00 | 63 | 1019.9 |
| 20260508145556 | 10 | 48 | 1.6 | 8.0 | 0.00 | 0.00 | 0.00 | 65 | 1019.9 |
| 20260508145055 | 9 | 55 | 1.6 | 8.0 | 0.00 | 0.00 | 0.00 | 66 | 1019.9 |
| 20260508144601 | 9 | 244 | 3.2 | 8.0 | 0.00 | 0.00 | 0.00 | 67 | 1020.0 |
| 20260508144052 | 8 | 61 | 1.6 | 6.4 | 0.00 | 0.00 | 0.00 | 68 | 1020.0 |
| 20260508143552 | 8 | 0 | 1.6 | 6.4 | 0.00 | 0.00 | 0.00 | 67 | 1020.0 |
| 20260508143101 | 8 | 61 | 3.2 | 8.0 | 0.00 | 0.00 | 0.00 | 67 | 1019.9 |
| 20260508142551 | 8 | 38 | 3.2 | 8.0 | 0.00 | 0.00 | 0.00 | 68 | 1019.9 |
| 20260508142054 | 7 | 61 | 1.6 | 6.4 | 0.00 | 0.00 | 0.00 | 68 | 1019.9 |
| 20260508141554 | 7 | 57 | 1.6 | 6.4 | 0.00 | 0.00 | 0.00 | 68 | 1019.8 |
| 20260508141052 | 7 | 24 | 1.6 | 6.4 | 0.00 | 0.00 | 0.00 | 69 | 1019.8 |
| 20260508140551 | 6 | 51 | 1.6 | 6.4 | 0.00 | 0.00 | 0.00 | 70 | 1019.9 |
| 20260508140110 | 6 | 239 | 1.6 | 4.8 | 0.00 | 0.00 | 0.00 | 72 | 1019.7 |
| 20260508135552 | 5 | 93 | 1.6 | 6.4 | 0.00 | 0.00 | 0.00 | 73 | 1019.8 |
| 20260508135052 | 5 | 43 | 0.0 | 8.0 | 0.00 | 0.00 | 0.00 | 74 | 1019.7 |
| 20260508134558 | 5 | 0 | 3.2 | 8.0 | 0.00 | 0.00 | 0.00 | 74 | 1019.8 |
| 20260508134054 | 5 | 68 | 1.6 | 6.4 | 0.00 | 0.00 | 0.00 | 75 | 1019.7 |
| 20260508133554 | 4 | 41 | 1.6 | 4.8 | 0.00 | 0.00 | 0.00 | 78 | 1019.6 |
| 20260508133058 | 3 | 68 | 1.6 | 6.4 | 0.00 | 0.00 | 0.00 | 79 | 1019.7 |
| 20260508132554 | 3 | 72 | 1.6 | 6.4 | 0.00 | 0.00 | 0.00 | 81 | 1019.6 |
| 20260508132051 | 3 | 234 | 1.6 | 4.8 | 0.00 | 0.00 | 0.00 | 80 | 1019.6 |
| 20260508131559 | 2 | 257 | 1.6 | 4.8 | 0.00 | 0.00 | 0.00 | 79 | 1019.5 |
| 20260508131055 | 2 | 0 | 1.6 | 4.8 | 0.00 | 0.00 | 0.00 | 80 | 1019.6 |
| 20260508130558 | 2 | 0 | 0.0 | 4.8 | 0.00 | 0.00 | 0.00 | 81 | 1019.5 |
| 20260508130110 | 2 | 0 | 1.6 | 8.0 | 0.00 | 0.00 | 0.00 | 82 | 1019.4 |
| 20260508125555 | 2 | 61 | 1.6 | 8.0 | 0.00 | 0.00 | 0.00 | 81 | 1019.4 |
| 20260508125056 | 2 | 61 | 1.6 | 3.2 | 0.00 | 0.00 | 0.00 | 81 | 1019.3 |
| 20260508124556 | 2 | 265 | 0.0 | 3.2 | 0.00 | 0.00 | 0.00 | 80 | 1019.2 |
| 20260508124055 | 2 | 126 | 0.0 | 3.2 | 0.00 | 0.00 | 0.00 | 80 | 1019.2 |
| 20260508123556 | 2 | 265 | 1.6 | 6.4 | 0.00 | 0.00 | 0.00 | 79 | 1019.1 |
| 20260508123101 | 2 | 0 | 0.0 | 6.4 | 0.00 | 0.00 | 0.00 | 79 | 1019.2 |
| 20260508122554 | 2 | 48 | 1.6 | 4.8 | 0.00 | 0.00 | 0.00 | 80 | 1019.2 |
| 20260508122051 | 2 | 251 | 3.2 | 4.8 | 0.00 | 0.00 | 0.00 | 80 | 1019.2 |
| 20260508121624 | 2 | 292 | 1.6 | 3.2 | 0.00 | 0.00 | 0.00 | 80 | 1019.1 |
| 20260508121051 | 2 | 9 | 0.0 | 3.2 | 0.00 | 0.00 | 0.00 | 79 | 1019.1 |
| 20260508120554 | 2 | 298 | 1.6 | 3.2 | 0.00 | 0.00 | 0.00 | 79 | 1019.0 |
| 20260508120055 | 2 | 205 | 1.6 | 6.4 | 0.00 | 0.00 | 0.00 | 79 | 1019.0 |
| 20260508115555 | 2 | 0 | 1.6 | 6.4 | 0.00 | 0.00 | 0.00 | 78 | 1019.1 |
| 20260508115052 | 2 | 173 | 0.0 | 4.8 | 0.00 | 0.00 | 0.00 | 77 | 1019.0 |
| 20260508114554 | 2 | 265 | 0.0 | 4.8 | 0.00 | 0.00 | 0.00 | 77 | 1019.0 |
| 20260508114053 | 3 | 34 | 1.6 | 8.0 | 0.00 | 0.00 | 0.00 | 77 | 1019.1 |
| 20260508113557 | 3 | 218 | 1.6 | 8.0 | 0.00 | 0.00 | 0.00 | 77 | 1018.9 |
| 20260508113051 | 3 | 336 | 3.2 | 8.0 | 0.00 | 0.00 | 0.00 | 76 | 1018.8 |
| 20260508112554 | 3 | 229 | 1.6 | 4.8 | 0.00 | 0.00 | 0.00 | 76 | 1019.0 |
| 20260508112051 | 3 | 255 | 1.6 | 6.4 | 0.00 | 0.00 | 0.00 | 76 | 1019.0 |
| 20260508111609 | 3 | 170 | 1.6 | 6.4 | 0.00 | 0.00 | 0.00 | 77 | 1018.9 |
| 20260508111054 | 3 | 279 | 3.2 | 6.4 | 0.00 | 0.00 | 0.00 | 77 | 1019.0 |
| 20260508110555 | 3 | 257 | 1.6 | 6.4 | 0.00 | 0.00 | 0.00 | 77 | 1019.2 |
| 20260508110057 | 3 | 265 | 3.2 | 4.8 | 0.00 | 0.00 | 0.00 | 77 | 1019.0 |
| 20260508105552 | 2 | 273 | 1.6 | 4.8 | 0.00 | 0.00 | 0.00 | 78 | 1019.1 |
| 20260508105055 | 2 | 309 | 1.6 | 3.2 | 0.00 | 0.00 | 0.00 | 78 | 1019.0 |
| 20260508104600 | 2 | 280 | 1.6 | 6.4 | 0.00 | 0.00 | 0.00 | 77 | 1018.8 |
| 20260508104054 | 2 | 221 | 1.6 | 6.4 | 0.00 | 0.00 | 0.00 | 78 | 1018.8 |
| 20260508103556 | 2 | 254 | 1.6 | 6.4 | 0.00 | 0.00 | 0.00 | 77 | 1018.8 |
| 20260508103057 | 2 | 265 | 1.6 | 4.8 | 0.00 | 0.00 | 0.00 | 77 | 1018.9 |
| 20260508102554 | 2 | 221 | 0.0 | 4.8 | 0.00 | 0.00 | 0.00 | 77 | 1018.7 |
| 20260508102053 | 3 | 250 | 0.0 | 4.8 | 0.00 | 0.00 | 0.00 | 76 | 1018.7 |
| 20260508101553 | 3 | 51 | 0.0 | 8.0 | 0.00 | 0.00 | 0.00 | 76 | 1018.8 |
| 20260508101052 | 3 | 0 | 1.6 | 8.0 | 0.00 | 0.00 | 0.00 | 77 | 1018.8 |
| 20260508100555 | 2 | 321 | 3.2 | 8.0 | 0.00 | 0.00 | 0.00 | 77 | 1018.7 |
| 20260508100054 | 2 | 282 | 3.2 | 6.4 | 0.00 | 0.00 | 0.00 | 78 | 1018.7 |
| 20260508095553 | 2 | 272 | 3.2 | 6.4 | 0.00 | 0.00 | 0.00 | 78 | 1018.6 |
| 20260508095053 | 2 | 196 | 1.6 | 6.4 | 0.00 | 0.00 | 0.00 | 78 | 1018.6 |
| 20260508094552 | 2 | 247 | 1.6 | 6.4 | 0.00 | 0.00 | 0.00 | 77 | 1018.6 |
| 20260508094055 | 2 | 243 | 1.6 | 8.0 | 0.00 | 0.00 | 0.00 | 77 | 1018.6 |
| 20260508093555 | 3 | 0 | 1.6 | 8.0 | 0.00 | 0.00 | 0.00 | 76 | 1018.6 |
| 20260508093057 | 3 | 164 | 1.6 | 6.4 | 0.00 | 0.00 | 0.00 | 74 | 1018.5 |
| 20260508092555 | 3 | 19 | 1.6 | 6.4 | 0.00 | 0.00 | 0.00 | 74 | 1018.6 |
| 20260508092055 | 3 | 22 | 1.6 | 4.8 | 0.00 | 0.00 | 0.00 | 73 | 1018.6 |
| 20260508091604 | 3 | 286 | 1.6 | 4.8 | 0.00 | 0.00 | 0.00 | 72 | 1018.5 |
| 20260508091052 | 4 | 0 | 1.6 | 4.8 | 0.00 | 0.00 | 0.00 | 72 | 1018.6 |
| 20260508090554 | 4 | 255 | 0.0 | 4.8 | 0.00 | 0.00 | 0.00 | 71 | 1018.6 |
| 20260508090110 | 4 | 309 | 1.6 | 6.4 | 0.00 | 0.00 | 0.00 | 71 | 1018.5 |
| 20260508085554 | 5 | 74 | 1.6 | 6.4 | 0.00 | 0.00 | 0.00 | 70 | 1018.6 |
| 20260508085054 | 4 | 272 | 3.2 | 6.4 | 0.00 | 0.00 | 0.00 | 71 | 1018.6 |
| 20260508084552 | 4 | 272 | 3.2 | 6.4 | 0.00 | 0.00 | 0.00 | 71 | 1018.6 |
| 20260508084055 | 4 | 265 | 3.2 | 6.4 | 0.00 | 0.00 | 0.00 | 72 | 1018.7 |
| 20260508083557 | 4 | 250 | 1.6 | 6.4 | 0.00 | 0.00 | 0.00 | 72 | 1018.8 |
| 20260508083053 | 4 | 265 | 3.2 | 6.4 | 0.00 | 0.00 | 0.00 | 71 | 1018.8 |
| 20260508082552 | 4 | 265 | 1.6 | 4.8 | 0.00 | 0.00 | 0.00 | 71 | 1018.9 |
| 20260508082051 | 4 | 257 | 1.6 | 6.4 | 0.00 | 0.00 | 0.00 | 71 | 1018.8 |
| 20260508081607 | 4 | 265 | 1.6 | 6.4 | 0.00 | 0.00 | 0.00 | 72 | 1018.9 |
| 20260508081054 | 4 | 282 | 1.6 | 6.4 | 0.00 | 0.00 | 0.00 | 72 | 1018.9 |
| 20260508080555 | 4 | 243 | 3.2 | 6.4 | 0.00 | 0.00 | 0.00 | 72 | 1018.9 |
| 20260508075555 | 4 | 265 | 3.2 | 4.8 | 0.00 | 0.00 | 0.00 | 72 | 1018.8 |
| 20260508075054 | 4 | 221 | 1.6 | 4.8 | 0.00 | 0.00 | 0.00 | 72 | 1018.8 |
| 20260508074553 | 4 | 250 | 1.6 | 4.8 | 0.00 | 0.00 | 0.00 | 72 | 1018.9 |
| 20260508074055 | 4 | 259 | 1.6 | 4.8 | 0.00 | 0.00 | 0.00 | 71 | 1019.0 |
| 20260508073555 | 4 | 265 | 0.0 | 3.2 | 0.00 | 0.00 | 0.00 | 70 | 1018.8 |
| 20260508073105 | 5 | 265 | 1.6 | 3.2 | 0.00 | 0.00 | 0.00 | 69 | 1018.8 |
| 20260508072554 | 5 | 212 | 0.0 | 3.2 | 0.00 | 0.00 | 0.00 | 69 | 1018.9 |
| 20260508072054 | 5 | 0 | 0.0 | 4.8 | 0.00 | 0.00 | 0.00 | 68 | 1018.9 |
| 20260508071612 | 5 | 0 | 1.6 | 4.8 | 0.00 | 0.00 | 0.00 | 68 | 1018.9 |
| 20260508071052 | 5 | 325 | 0.0 | 4.8 | 0.00 | 0.00 | 0.00 | 67 | 1018.8 |
| 20260508070555 | 5 | 239 | 1.6 | 4.8 | 0.00 | 0.00 | 0.00 | 67 | 1018.7 |
| 20260508065555 | 6 | 9 | 3.2 | 6.4 | 0.00 | 0.00 | 0.00 | 65 | 1018.6 |
| 20260508065052 | 6 | 265 | 1.6 | 6.4 | 0.00 | 0.00 | 0.00 | 65 | 1018.8 |
| 20260508064607 | 6 | 282 | 3.2 | 6.4 | 0.00 | 0.00 | 0.00 | 65 | 1018.8 |
| 20260508064057 | 6 | 265 | 3.2 | 6.4 | 0.00 | 0.00 | 0.00 | 65 | 1018.7 |
| 20260508063553 | 6 | 309 | 3.2 | 6.4 | 0.00 | 0.00 | 0.00 | 64 | 1018.6 |
| 20260508063059 | 6 | 215 | 3.2 | 6.4 | 0.00 | 0.00 | 0.00 | 64 | 1018.7 |
| 20260508062552 | 6 | 0 | 3.2 | 6.4 | 0.00 | 0.00 | 0.00 | 63 | 1018.6 |
| 20260508062054 | 6 | 250 | 1.6 | 6.4 | 0.00 | 0.00 | 0.00 | 63 | 1018.6 |
| 20260508061556 | 6 | 303 | 3.2 | 6.4 | 0.00 | 0.00 | 0.00 | 63 | 1018.5 |
| 20260508061054 | 6 | 265 | 3.2 | 11.3 | 0.00 | 0.00 | 0.00 | 63 | 1018.6 |
| 20260508060555 | 6 | 296 | 1.6 | 11.3 | 0.00 | 0.00 | 0.00 | 62 | 1018.5 |
| 20260508060055 | 6 | 46 | 4.8 | 11.3 | 0.00 | 0.00 | 0.00 | 62 | 1018.4 |
| 20260508055555 | 6 | 251 | 3.2 | 11.3 | 0.00 | 0.00 | 0.00 | 63 | 1018.5 |
| 20260508055055 | 7 | 248 | 3.2 | 6.4 | 0.00 | 0.00 | 0.00 | 62 | 1018.5 |
| 20260508054608 | 7 | 249 | 3.2 | 4.8 | 0.00 | 0.00 | 0.00 | 62 | 1018.5 |
| 20260508054054 | 7 | 265 | 1.6 | 4.8 | 0.00 | 0.00 | 0.00 | 61 | 1018.4 |
| 20260508053554 | 7 | 190 | 1.6 | 6.4 | 0.00 | 0.00 | 0.00 | 60 | 1018.4 |
| 20260508053104 | 7 | 243 | 3.2 | 9.7 | 0.00 | 0.00 | 0.00 | 60 | 1018.4 |
| 20260508052553 | 7 | 272 | 4.8 | 9.7 | 0.00 | 0.00 | 0.00 | 59 | 1018.3 |
| 20260508052053 | 7 | 250 | 1.6 | 6.4 | 0.00 | 0.00 | 0.00 | 59 | 1018.3 |
| 20260508051557 | 7 | 257 | 3.2 | 6.4 | 0.00 | 0.00 | 0.00 | 59 | 1018.2 |
| 20260508051052 | 7 | 285 | 3.2 | 6.4 | 0.00 | 0.00 | 0.00 | 58 | 1018.4 |
| 20260508050553 | 8 | 254 | 3.2 | 6.4 | 0.00 | 0.00 | 0.00 | 57 | 1018.5 |
| 20260508050056 | 8 | 265 | 3.2 | 9.7 | 0.00 | 0.00 | 0.00 | 56 | 1018.5 |
| 20260508045552 | 8 | 292 | 1.6 | 9.7 | 0.00 | 0.00 | 0.00 | 56 | 1018.5 |
| 20260508045055 | 8 | 275 | 3.2 | 8.0 | 0.00 | 0.00 | 0.00 | 55 | 1018.4 |
| 20260508044559 | 8 | 265 | 1.6 | 9.7 | 0.00 | 0.00 | 0.00 | 54 | 1018.5 |
| 20260508044054 | 9 | 259 | 4.8 | 9.7 | 0.00 | 0.00 | 0.00 | 54 | 1018.5 |
| 20260508043554 | 9 | 292 | 0.0 | 6.4 | 0.00 | 0.00 | 0.00 | 54 | 1018.6 |
| 20260508043052 | 9 | 76 | 1.6 | 12.9 | 0.00 | 0.00 | 0.00 | 52 | 1018.6 |
| 20260508042553 | 10 | 221 | 4.8 | 12.9 | 0.00 | 0.00 | 0.00 | 52 | 1018.5 |
| 20260508042052 | 10 | 279 | 8.0 | 11.3 | 0.00 | 0.00 | 0.00 | 51 | 1018.4 |
| 20260508041554 | 10 | 265 | 6.4 | 11.3 | 0.00 | 0.00 | 0.00 | 51 | 1018.5 |
| 20260508041051 | 10 | 292 | 4.8 | 11.3 | 0.00 | 0.00 | 0.00 | 51 | 1018.5 |
| 20260508040552 | 10 | 279 | 4.8 | 11.3 | 0.00 | 0.00 | 0.00 | 51 | 1018.5 |
| 20260508040058 | 10 | 277 | 3.2 | 9.7 | 0.00 | 0.00 | 0.00 | 50 | 1018.4 |
| 20260508035551 | 10 | 271 | 4.8 | 11.3 | 0.00 | 0.00 | 0.00 | 50 | 1018.4 |
| 20260508035052 | 10 | 268 | 4.8 | 11.3 | 0.00 | 0.00 | 0.00 | 50 | 1018.3 |
| 20260508034606 | 10 | 282 | 3.2 | 6.4 | 0.00 | 0.00 | 0.00 | 50 | 1018.4 |
| 20260508034051 | 10 | 254 | 1.6 | 11.3 | 0.00 | 0.00 | 0.00 | 49 | 1018.3 |
| 20260508033551 | 11 | 265 | 1.6 | 12.9 | 0.00 | 0.00 | 0.00 | 48 | 1018.2 |
| 20260508033113 | 11 | 279 | 6.4 | 12.9 | 0.00 | 0.00 | 0.00 | 46 | 1018.1 |
| 20260508032552 | 11 | 275 | 6.4 | 12.9 | 0.00 | 0.00 | 0.00 | 46 | 1017.9 |
| 20260508032055 | 11 | 294 | 4.8 | 12.9 | 0.00 | 0.00 | 0.00 | 46 | 1018.0 |
| 20260508031554 | 11 | 248 | 6.4 | 12.9 | 0.00 | 0.00 | 0.00 | 46 | 1018.0 |
| 20260508031052 | 11 | 292 | 8.0 | 12.9 | 0.00 | 0.00 | 0.00 | 46 | 1017.9 |
| 20260508030551 | 11 | 296 | 6.4 | 12.9 | 0.00 | 0.00 | 0.00 | 46 | 1017.9 |
| 20260508030109 | 11 | 268 | 6.4 | 12.9 | 0.00 | 0.00 | 0.00 | 46 | 1017.9 |
| 20260508025551 | 11 | 269 | 6.4 | 12.9 | 0.00 | 0.00 | 0.00 | 46 | 1017.9 |
| 20260508025052 | 11 | 277 | 6.4 | 12.9 | 0.00 | 0.00 | 0.00 | 46 | 1017.9 |
| 20260508024620 | 12 | 259 | 6.4 | 12.9 | 0.00 | 0.00 | 0.00 | 44 | 1017.9 |
| 20260508024052 | 12 | 265 | 6.4 | 11.3 | 0.00 | 0.00 | 0.00 | 45 | 1017.8 |
| 20260508023552 | 12 | 277 | 4.8 | 11.3 | 0.00 | 0.00 | 0.00 | 45 | 1017.8 |
| 20260508023052 | 12 | 259 | 6.4 | 11.3 | 0.00 | 0.00 | 0.00 | 44 | 1017.7 |
| 20260508022552 | 13 | 286 | 6.4 | 11.3 | 0.00 | 0.00 | 0.00 | 43 | 1017.8 |
| 20260508022052 | 13 | 280 | 4.8 | 11.3 | 0.00 | 0.00 | 0.00 | 42 | 1017.7 |
| 20260508021600 | 13 | 290 | 4.8 | 11.3 | 0.00 | 0.00 | 0.00 | 41 | 1017.8 |
| 20260508021050 | 13 | 247 | 4.8 | 9.7 | 0.00 | 0.00 | 0.00 | 41 | 1017.6 |
| 20260508020551 | 13 | 272 | 3.2 | 11.3 | 0.00 | 0.00 | 0.00 | 40 | 1017.7 |
| 20260508020110 | 14 | 301 | 4.8 | 11.3 | 0.00 | 0.00 | 0.00 | 41 | 1017.6 |
| 20260508015551 | 15 | 250 | 3.2 | 9.7 | 0.00 | 0.00 | 0.00 | 38 | 1017.7 |
| 20260508015053 | 15 | 286 | 3.2 | 9.7 | 0.00 | 0.00 | 0.00 | 37 | 1017.6 |
| 20260508014606 | 15 | 282 | 1.6 | 4.8 | 0.00 | 0.00 | 0.00 | 39 | 1017.6 |
| 20260508014051 | 15 | 55 | 1.6 | 11.3 | 0.00 | 0.00 | 0.00 | 36 | 1017.7 |
| 20260508013551 | 15 | 301 | 3.2 | 14.5 | 0.00 | 0.00 | 0.00 | 35 | 1017.8 |
| 20260508013107 | 16 | 16 | 3.2 | 16.1 | 0.00 | 0.00 | 0.00 | 33 | 1017.6 |
| 20260508012555 | 16 | 212 | 6.4 | 19.3 | 0.00 | 0.00 | 0.00 | 34 | 1017.7 |
| 20260508012055 | 16 | 15 | 6.4 | 30.6 | 0.00 | 0.00 | 0.00 | 33 | 1017.6 |
| 20260508011600 | 16 | 243 | 12.9 | 30.6 | 0.00 | 0.00 | 0.00 | 32 | 1017.5 |
| 20260508011057 | 16 | 282 | 6.4 | 14.5 | 0.00 | 0.00 | 0.00 | 32 | 1017.5 |
| 20260508010555 | 16 | 307 | 1.6 | 14.5 | 0.00 | 0.00 | 0.00 | 32 | 1017.5 |
| 20260508010115 | 16 | 55 | 1.6 | 17.7 | 0.00 | 0.00 | 0.00 | 33 | 1017.6 |
| 20260508005554 | 16 | 273 | 6.4 | 17.7 | 0.00 | 0.00 | 0.00 | 32 | 1017.7 |
| 20260508005055 | 16 | 28 | 6.4 | 17.7 | 0.00 | 0.00 | 0.00 | 32 | 1017.6 |
| 20260508004556 | 16 | 178 | 6.4 | 19.3 | 0.00 | 0.00 | 0.00 | 32 | 1017.6 |
| 20260508004055 | 16 | 335 | 6.4 | 19.3 | 0.00 | 0.00 | 0.00 | 31 | 1017.7 |
| 20260508003554 | 17 | 350 | 8.0 | 19.3 | 0.00 | 0.00 | 0.00 | 31 | 1017.8 |
| 20260508003056 | 17 | 331 | 4.8 | 14.5 | 0.00 | 0.00 | 0.00 | 31 | 1017.9 |
| 20260508002555 | 17 | 267 | 4.8 | 12.9 | 0.00 | 0.00 | 0.00 | 31 | 1017.7 |
| 20260508002055 | 17 | 265 | 1.6 | 14.5 | 0.00 | 0.00 | 0.00 | 32 | 1017.8 |
| 20260508001602 | 17 | 251 | 3.2 | 14.5 | 0.00 | 0.00 | 0.00 | 31 | 1017.7 |
| 20260508001055 | 17 | 59 | 3.2 | 12.9 | 0.00 | 0.00 | 0.00 | 32 | 1017.9 |
| 20260508000555 | 17 | 255 | 3.2 | 14.5 | 0.00 | 0.00 | 0.00 | 32 | 1017.9 |
| 20260507235553 | 17 | 323 | 6.4 | 20.9 | 0.00 | 0.00 | 0.00 | 33 | 1017.9 |
| 20260507235054 | 17 | 325 | 4.8 | 20.9 | 0.00 | 0.00 | 0.00 | 31 | 1018.0 |
| 20260507234559 | 17 | 25 | 4.8 | 20.9 | 0.00 | 0.00 | 0.00 | 32 | 1018.0 |
| 20260507234052 | 17 | 273 | 8.0 | 20.9 | 0.00 | 0.00 | 0.00 | 31 | 1017.9 |
| 20260507233555 | 17 | 61 | 8.0 | 20.9 | 0.00 | 0.00 | 0.00 | 31 | 1018.2 |
| 20260507233054 | 17 | 334 | 1.6 | 22.5 | 0.00 | 0.00 | 0.00 | 33 | 1018.2 |
| 20260507232554 | 17 | 27 | 9.7 | 33.8 | 0.00 | 0.00 | 0.00 | 32 | 1018.2 |
| 20260507232055 | 17 | 341 | 8.0 | 33.8 | 0.00 | 0.00 | 0.00 | 33 | 1018.3 |
| 20260507231559 | 17 | 24 | 14.5 | 33.8 | 0.00 | 0.00 | 0.00 | 31 | 1018.2 |
| 20260507231059 | 17 | 250 | 6.4 | 19.3 | 0.00 | 0.00 | 0.00 | 32 | 1018.3 |
| 20260507230556 | 17 | 41 | 6.4 | 19.3 | 0.00 | 0.00 | 0.00 | 34 | 1018.5 |
| 20260507230058 | 17 | 51 | 6.4 | 24.1 | 0.00 | 0.00 | 0.00 | 33 | 1018.5 |
| 20260507225552 | 17 | 304 | 11.3 | 24.1 | 0.00 | 0.00 | 0.00 | 33 | 1018.6 |
| 20260507225053 | 17 | 38 | 6.4 | 22.5 | 0.00 | 0.00 | 0.00 | 33 | 1018.6 |
| 20260507224558 | 17 | 292 | 6.4 | 32.2 | 0.00 | 0.00 | 0.00 | 34 | 1018.8 |
| 20260507224052 | 17 | 329 | 9.7 | 37.0 | 0.00 | 0.00 | 0.00 | 32 | 1018.7 |
| 20260507223557 | 17 | 324 | 9.7 | 37.0 | 0.00 | 0.00 | 0.00 | 33 | 1018.9 |
| 20260507223055 | 17 | 19 | 9.7 | 30.6 | 0.00 | 0.00 | 0.00 | 31 | 1018.7 |
| 20260507222558 | 17 | 344 | 8.0 | 29.0 | 0.00 | 0.00 | 0.00 | 33 | 1018.8 |
| 20260507222056 | 17 | 335 | 12.9 | 46.7 | 0.00 | 0.00 | 0.00 | 32 | 1018.8 |
| 20260507221555 | 17 | 21 | 12.9 | 46.7 | 0.00 | 0.00 | 0.00 | 34 | 1018.8 |
| 20260507221051 | 17 | 323 | 14.5 | 30.6 | 0.00 | 0.00 | 0.00 | 31 | 1018.7 |
| 20260507220552 | 17 | 329 | 9.7 | 29.0 | 0.00 | 0.00 | 0.00 | 31 | 1018.8 |
| 20260507220053 | 17 | 317 | 9.7 | 29.0 | 0.00 | 0.00 | 0.00 | 32 | 1018.8 |
| 20260507215552 | 17 | 43 | 6.4 | 29.0 | 0.00 | 0.00 | 0.00 | 35 | 1019.0 |
| 20260507215052 | 17 | 38 | 14.5 | 29.0 | 0.00 | 0.00 | 0.00 | 30 | 1018.9 |
| 20260507214557 | 17 | 241 | 12.9 | 25.7 | 0.00 | 0.00 | 0.00 | 30 | 1018.9 |
| 20260507214052 | 17 | 28 | 9.7 | 33.8 | 0.00 | 0.00 | 0.00 | 31 | 1019.0 |
| 20260507213552 | 17 | 321 | 11.3 | 35.4 | 0.00 | 0.00 | 0.00 | 31 | 1019.2 |
| 20260507213101 | 18 | 333 | 14.5 | 37.0 | 0.00 | 0.00 | 0.00 | 30 | 1019.2 |
| 20260507212553 | 18 | 240 | 14.5 | 37.0 | 0.00 | 0.00 | 0.00 | 32 | 1019.3 |
| 20260507212053 | 18 | 340 | 12.9 | 25.7 | 0.00 | 0.00 | 0.00 | 33 | 1019.4 |
| 20260507211555 | 18 | 257 | 6.4 | 25.7 | 0.00 | 0.00 | 0.00 | 32 | 1019.1 |
| 20260507211052 | 18 | 20 | 9.7 | 25.7 | 0.00 | 0.00 | 0.00 | 33 | 1019.3 |
| 20260507210552 | 18 | 331 | 4.8 | 25.7 | 0.00 | 0.00 | 0.00 | 33 | 1019.4 |
| 20260507210056 | 17 | 247 | 9.7 | 29.0 | 0.00 | 0.00 | 0.00 | 33 | 1019.4 |
| 20260507205553 | 17 | 280 | 11.3 | 29.0 | 0.00 | 0.00 | 0.00 | 34 | 1019.4 |
| 20260507205052 | 17 | 9 | 11.3 | 29.0 | 0.00 | 0.00 | 0.00 | 32 | 1019.4 |
| 20260507204602 | 17 | 312 | 12.9 | 30.6 | 0.00 | 0.00 | 0.00 | 30 | 1019.5 |
| 20260507204052 | 18 | 21 | 11.3 | 30.6 | 0.00 | 0.00 | 0.00 | 33 | 1019.5 |
| 20260507203553 | 18 | 323 | 8.0 | 30.6 | 0.00 | 0.00 | 0.00 | 30 | 1019.4 |
| 20260507203059 | 17 | 299 | 3.2 | 30.6 | 0.00 | 0.00 | 0.00 | 32 | 1019.5 |
| 20260507202552 | 17 | 263 | 11.3 | 27.4 | 0.00 | 0.00 | 0.00 | 32 | 1019.5 |
| 20260507202052 | 17 | 325 | 16.1 | 27.4 | 0.00 | 0.00 | 0.00 | 29 | 1019.6 |
| 20260507201610 | 17 | 0 | 3.2 | 25.7 | 0.00 | 0.00 | 0.00 | 32 | 1019.6 |
| 20260507201053 | 17 | 26 | 11.3 | 35.4 | 0.00 | 0.00 | 0.00 | 31 | 1019.6 |
| 20260507200553 | 17 | 324 | 6.4 | 35.4 | 0.00 | 0.00 | 0.00 | 31 | 1019.5 |
| 20260507200053 | 17 | 317 | 14.5 | 35.4 | 0.00 | 0.00 | 0.00 | 30 | 1019.6 |
| 20260507195550 | 17 | 235 | 4.8 | 35.4 | 0.00 | 0.00 | 0.00 | 29 | 1019.7 |
| 20260507195055 | 17 | 41 | 8.0 | 35.4 | 0.00 | 0.00 | 0.00 | 29 | 1019.6 |
| 20260507194603 | 17 | 244 | 9.7 | 35.4 | 0.00 | 0.00 | 0.00 | 29 | 1019.6 |
| 20260507194053 | 17 | 153 | 8.0 | 30.6 | 0.00 | 0.00 | 0.00 | 33 | 1019.6 |
| 20260507193552 | 17 | 325 | 6.4 | 30.6 | 0.00 | 0.00 | 0.00 | 31 | 1019.8 |
| 20260507193100 | 17 | 93 | 9.7 | 40.2 | 0.00 | 0.00 | 0.00 | 32 | 1019.9 |
| 20260507192552 | 16 | 268 | 9.7 | 40.2 | 0.00 | 0.00 | 0.00 | 31 | 1020.0 |
| 20260507192053 | 16 | 237 | 14.5 | 40.2 | 0.00 | 0.00 | 0.00 | 29 | 1019.8 |
| 20260507191607 | 16 | 248 | 17.7 | 37.0 | 0.00 | 0.00 | 0.00 | 30 | 1020.1 |
| 20260507191053 | 17 | 273 | 19.3 | 37.0 | 0.00 | 0.00 | 0.00 | 29 | 1019.9 |
| 20260507190552 | 17 | 182 | 12.9 | 38.6 | 0.00 | 0.00 | 0.00 | 32 | 1019.9 |
| 20260507190059 | 16 | 234 | 9.7 | 38.6 | 0.00 | 0.00 | 0.00 | 30 | 1019.9 |
| 20260507185553 | 16 | 250 | 11.3 | 22.5 | 0.00 | 0.00 | 0.00 | 30 | 1020.0 |
| 20260507185053 | 16 | 284 | 8.0 | 24.1 | 0.00 | 0.00 | 0.00 | 31 | 1020.1 |
| 20260507184553 | 17 | 261 | 11.3 | 24.1 | 0.00 | 0.00 | 0.00 | 29 | 1020.1 |
| 20260507184053 | 17 | 257 | 8.0 | 25.7 | 0.00 | 0.00 | 0.00 | 33 | 1019.9 |
| 20260507183549 | 17 | 19 | 9.7 | 32.2 | 0.00 | 0.00 | 0.00 | 31 | 1020.0 |
| 20260507183107 | 17 | 217 | 9.7 | 32.2 | 0.00 | 0.00 | 0.00 | 31 | 1020.0 |
| 20260507182554 | 17 | 275 | 9.7 | 32.2 | 0.00 | 0.00 | 0.00 | 31 | 1019.9 |
| 20260507182053 | 16 | 269 | 16.1 | 32.2 | 0.00 | 0.00 | 0.00 | 30 | 1020.0 |
| 20260507181555 | 16 | 236 | 11.3 | 35.4 | 0.00 | 0.00 | 0.00 | 31 | 1019.8 |
| 20260507181052 | 16 | 265 | 16.1 | 35.4 | 0.00 | 0.00 | 0.00 | 30 | 1020.0 |
| 20260507180553 | 16 | 265 | 11.3 | 29.0 | 0.00 | 0.00 | 0.00 | 32 | 1020.1 |
| 20260507180057 | 16 | 287 | 8.0 | 32.2 | 0.00 | 0.00 | 0.00 | 31 | 1020.2 |
| 20260507175553 | 16 | 102 | 12.9 | 32.2 | 0.00 | 0.15 | 0.00 | 32 | 1020.1 |
| 20260507175053 | 16 | 323 | 6.4 | 27.4 | 0.00 | 0.15 | 0.00 | 33 | 1020.2 |
| 20260507174556 | 15 | 65 | 9.7 | 27.4 | 0.00 | 0.15 | 0.00 | 33 | 1020.2 |
| 20260507174053 | 15 | 13 | 4.8 | 22.5 | 0.00 | 0.15 | 0.00 | 33 | 1020.1 |
| 20260507173554 | 15 | 25 | 8.0 | 22.5 | 0.00 | 0.15 | 0.00 | 35 | 1020.1 |
| 20260507173106 | 14 | 265 | 1.6 | 12.9 | 0.00 | 0.15 | 0.00 | 39 | 1020.4 |
| 20260507172557 | 14 | 22 | 4.8 | 9.7 | 0.00 | 0.15 | 0.00 | 44 | 1020.5 |